• In Romania
  • List of Countries
  • For 7 days
  • Water Temperature
  • Satellite Maps
  • Weather Map
  • Weather Widgets
  • user-avatar
    Login

    Hourly Weather São Paulo

    Today, 21 February, Wednesday

    Time Temperature Precipitation Wind Pressure Humidity
    00:00 +24°C° 0.2 mm 3 mps 695 mmHg 87%
    01:00 +24°C° 0.1 mm 3 mps 695 mmHg 87%
    02:00 +24°C° 0.1 mm 3 mps 695 mmHg 87%
    03:00 +22°C° 0 mm 3 mps 694 mmHg 87%
    04:00 +22°C° 0.2 mm 3 mps 694 mmHg 87%
    05:00 +22°C° 0.2 mm 3 mps 694 mmHg 88%
    06:00 +22°C° 0.2 mm 3 mps 694 mmHg 88%
    07:00 +24°C° 0 mm 3 mps 695 mmHg 84%
    08:00 +25°C° 0 mm 4 mps 695 mmHg 79%
    09:00 +26°C° 0 mm 4 mps 696 mmHg 73%
    10:00 +27°C° 0 mm 4 mps 696 mmHg 68%
    11:00 +28°C° 0 mm 4 mps 696 mmHg 63%
    12:00 +30°C° 0 mm 4 mps 696 mmHg 58%
    13:00 +30°C° 0.2 mm 4 mps 695 mmHg 57%
    14:00 +30°C° 0.2 mm 4 mps 695 mmHg 55%
    15:00 +32°C° 0.2 mm 4 mps 695 mmHg 54%
    16:00 +30°C° 0.2 mm 3 mps 694 mmHg 59%
    17:00 +28°C° 0.2 mm 3 mps 694 mmHg 63%
    18:00 +27°C° 0.2 mm 2 mps 694 mmHg 68%
    19:00 +26°C° 0 mm 2 mps 694 mmHg 73%
    20:00 +25°C° 0 mm 2 mps 695 mmHg 78%
    21:00 +24°C° 0 mm 1 mps 695 mmHg 83%
    22:00 +23°C° 0 mm 1 mps 695 mmHg 84%
    23:00 +23°C° 0 mm 1 mps 695 mmHg 85%

    Tomorrow, 22 February, Thursday

    Time Temperature Precipitation Wind Pressure Humidity
    00:00 +23°C° 0 mm 1 mps 695 mmHg 85%
    01:00 +22°C° 0 mm 1 mps 695 mmHg 86%
    02:00 +22°C° 0 mm 1 mps 695 mmHg 87%
    03:00 +22°C° 0 mm 1 mps 694 mmHg 88%
    04:00 +22°C° 0 mm 1 mps 694 mmHg 88%
    05:00 +22°C° 0 mm 1 mps 694 mmHg 89%
    06:00 +20°C° 0 mm 0 mps 694 mmHg 89%
    07:00 +23°C° 0 mm 1 mps 695 mmHg 83%
    08:00 +25°C° 0 mm 1 mps 696 mmHg 76%
    09:00 +27°C° 0 mm 1 mps 696 mmHg 70%
    10:00 +28°C° 0.2 mm 1 mps 696 mmHg 65%
    11:00 +29°C° 0.2 mm 1 mps 696 mmHg 61%
    12:00 +30°C° 0.2 mm 1 mps 697 mmHg 57%
    13:00 +30°C° 0.4 mm 2 mps 696 mmHg 59%
    14:00 +29°C° 0.4 mm 2 mps 696 mmHg 62%
    15:00 +29°C° 0.4 mm 2 mps 695 mmHg 64%
    16:00 +27°C° 0.4 mm 3 mps 695 mmHg 70%
    17:00 +26°C° 0.4 mm 3 mps 695 mmHg 76%
    18:00 +25°C° 0.4 mm 3 mps 695 mmHg 82%
    19:00 +24°C° 0.1 mm 3 mps 695 mmHg 84%
    20:00 +22°C° 0.1 mm 3 mps 696 mmHg 86%
    21:00 +22°C° 0.1 mm 3 mps 696 mmHg 88%
    22:00 +21°C° 0 mm 2 mps 696 mmHg 89%
    23:00 +21°C° 0 mm 2 mps 696 mmHg 89%

    Day after tomorrow, 23 February, Friday

    Time Temperature Precipitation Wind Pressure Humidity
    00:00 +21°C° 0 mm 2 mps 697 mmHg 90%
    01:00 +20°C° 0 mm 2 mps 696 mmHg 90%
    02:00 +20°C° 0 mm 2 mps 696 mmHg 90%
    03:00 +20°C° 0 mm 2 mps 696 mmHg 90%
    04:00 +20°C° 0 mm 2 mps 696 mmHg 90%
    05:00 +20°C° 0 mm 2 mps 696 mmHg 90%
    06:00 +19°C° 0 mm 2 mps 696 mmHg 90%
    07:00 +21°C° 0 mm 2 mps 697 mmHg 84%
    08:00 +22°C° 0 mm 3 mps 698 mmHg 78%
    09:00 +24°C° 0 mm 3 mps 698 mmHg 72%
    10:00 +25°C° 0 mm 3 mps 698 mmHg 68%
    11:00 +26°C° 0 mm 3 mps 698 mmHg 63%
    12:00 +28°C° 0 mm 4 mps 699 mmHg 58%
    13:00 +27°C° 0.1 mm 4 mps 698 mmHg 62%
    14:00 +26°C° 0.1 mm 4 mps 697 mmHg 65%
    15:00 +26°C° 0.1 mm 4 mps 697 mmHg 68%
    16:00 +25°C° 0 mm 4 mps 697 mmHg 72%
    17:00 +23°C° 0 mm 4 mps 697 mmHg 75%
    18:00 +22°C° 0 mm 4 mps 697 mmHg 78%
    19:00 +21°C° 0 mm 4 mps 698 mmHg 80%
    20:00 +20°C° 0 mm 4 mps 698 mmHg 82%
    21:00 +20°C° 0 mm 3 mps 699 mmHg 84%
    22:00 +19°C° 0 mm 3 mps 698 mmHg 84%
    23:00 +19°C° 0 mm 3 mps 698 mmHg 85%

    24 February, Saturday

    Time Temperature Precipitation Wind Pressure Humidity
    00:00 +19°C° 0 mm 2 mps 698 mmHg 86%
    01:00 +19°C° 0 mm 2 mps 698 mmHg 86%
    02:00 +18°C° 0 mm 2 mps 698 mmHg 86%
    03:00 +18°C° 0 mm 2 mps 697 mmHg 86%
    04:00 +18°C° 0 mm 2 mps 697 mmHg 87%
    05:00 +18°C° 0 mm 2 mps 697 mmHg 88%
    06:00 +18°C° 0 mm 2 mps 698 mmHg 88%
    07:00 +19°C° 0 mm 2 mps 698 mmHg 81%
    08:00 +21°C° 0 mm 2 mps 699 mmHg 75%
    09:00 +22°C° 0 mm 3 mps 700 mmHg 68%
    10:00 +25°C° 0 mm 3 mps 700 mmHg 64%
    11:00 +26°C° 0 mm 3 mps 700 mmHg 61%
    12:00 +27°C° 0 mm 3 mps 700 mmHg 57%
    13:00 +27°C° 0 mm 4 mps 699 mmHg 59%
    14:00 +26°C° 0 mm 4 mps 699 mmHg 62%
    15:00 +26°C° 0 mm 4 mps 698 mmHg 64%
    16:00 +25°C° 0 mm 4 mps 698 mmHg 67%
    17:00 +23°C° 0 mm 4 mps 698 mmHg 70%
    18:00 +22°C° 0 mm 4 mps 698 mmHg 73%
    19:00 +21°C° 0 mm 4 mps 699 mmHg 77%
    20:00 +20°C° 0 mm 3 mps 699 mmHg 81%
    21:00 +19°C° 0 mm 3 mps 699 mmHg 84%
    22:00 +19°C° 0 mm 3 mps 699 mmHg 85%
    23:00 +19°C° 0 mm 2 mps 699 mmHg 85%

    25 February, Sunday

    Time Temperature Precipitation Wind Pressure Humidity
    00:00 +19°C° 0 mm 2 mps 699 mmHg 86%
    01:00 +18°C° 0 mm 2 mps 699 mmHg 86%
    02:00 +18°C° 0 mm 2 mps 698 mmHg 87%
    03:00 +18°C° 0 mm 2 mps 698 mmHg 88%
    04:00 +18°C° 0 mm 2 mps 698 mmHg 88%
    05:00 +18°C° 0 mm 2 mps 699 mmHg 89%
    06:00 +18°C° 0 mm 2 mps 699 mmHg 89%
    07:00 +19°C° 0 mm 2 mps 699 mmHg 83%
    08:00 +21°C° 0 mm 2 mps 700 mmHg 76%
    09:00 +23°C° 0 mm 2 mps 701 mmHg 69%
    10:00 +24°C° 0 mm 2 mps 701 mmHg 65%
    11:00 +26°C° 0 mm 2 mps 701 mmHg 61%
    12:00 +27°C° 0 mm 2 mps 701 mmHg 56%
    13:00 +27°C° 0 mm 3 mps 700 mmHg 60%
    14:00 +26°C° 0 mm 3 mps 699 mmHg 63%
    15:00 +26°C° 0 mm 3 mps 699 mmHg 66%
    16:00 +25°C° 0 mm 4 mps 699 mmHg 70%
    17:00 +23°C° 0 mm 4 mps 698 mmHg 74%
    18:00 +22°C° 0 mm 4 mps 698 mmHg 77%
    19:00 +21°C° 0 mm 4 mps 699 mmHg 80%
    20:00 +21°C° 0 mm 3 mps 699 mmHg 83%
    21:00 +20°C° 0 mm 3 mps 699 mmHg 85%
    22:00 +20°C° 0 mm 3 mps 699 mmHg 86%
    23:00 +19°C° 0 mm 3 mps 699 mmHg 87%

    26 February, Monday

    Time Temperature Precipitation Wind Pressure Humidity
    00:00 +19°C° 0 mm 3 mps 699 mmHg 88%
    01:00 +19°C° 0 mm 2 mps 698 mmHg 88%
    02:00 +19°C° 0 mm 2 mps 698 mmHg 89%
    03:00 +19°C° 0 mm 2 mps 698 mmHg 89%
    04:00 +18°C° 0 mm 2 mps 698 mmHg 90%
    05:00 +19°C° 0 mm 1 mps 698 mmHg 90%
    06:00 +19°C° 0 mm 1 mps 698 mmHg 90%
    07:00 +20°C° 0 mm 2 mps 699 mmHg 83%
    08:00 +21°C° 0 mm 2 mps 699 mmHg 76%
    09:00 +24°C° 0 mm 2 mps 700 mmHg 69%
    10:00 +25°C° 0 mm 2 mps 700 mmHg 64%
    11:00 +27°C° 0 mm 2 mps 700 mmHg 59%
    12:00 +28°C° 0 mm 2 mps 700 mmHg 55%
    13:00 +27°C° 0.2 mm 3 mps 699 mmHg 60%
    14:00 +26°C° 0.2 mm 3 mps 699 mmHg 66%
    15:00 +25°C° 0.2 mm 3 mps 698 mmHg 71%
    16:00 +24°C° 0.1 mm 3 mps 698 mmHg 75%
    17:00 +24°C° 0.1 mm 3 mps 698 mmHg 78%
    18:00 +22°C° 0.1 mm 3 mps 698 mmHg 82%
    19:00 +21°C° 0 mm 3 mps 698 mmHg 84%
    20:00 +21°C° 0 mm 3 mps 698 mmHg 86%
    21:00 +20°C° 0 mm 3 mps 698 mmHg 88%
    22:00 +20°C° 0 mm 3 mps 698 mmHg 88%
    23:00 +20°C° 0 mm 3 mps 698 mmHg 88%
    Show more